�������l�o���
Date,Time,MP-1(��Sv/h),MP-2(��Sv/h),MP-3(��Sv/h),MP-4(��Sv/h),MP-5(��Sv/h),MP-6(��Sv/h),MP-7(��Sv/h),MP-8(��Sv/h),����,����(m/s),���J
2021/07/12,00:00,0.583,0.855,0.558,1.047,0.737,0.363,0.620,0.583,���쐼,2.3,��
2021/07/12,00:10,0.584,0.853,0.556,1.045,0.739,0.361,0.621,0.581,���k��,0.9,��
2021/07/12,00:20,0.583,0.856,0.555,1.048,0.737,0.362,0.620,0.584,�k,1.7,��
2021/07/12,00:30,0.583,0.855,0.555,1.047,0.738,0.361,0.621,0.581,�k��,2.3,��
2021/07/12,00:40,0.585,0.856,0.555,1.048,0.738,0.361,0.619,0.583,�k��,3.3,��
2021/07/12,00:50,0.583,0.855,0.556,1.047,0.737,0.362,0.621,0.582,�k�k��,3.0,��
2021/07/12,01:00,0.584,0.857,0.557,1.046,0.739,0.360,0.620,0.583,�k��,1.9,��
2021/07/12,01:10,0.588,0.856,0.557,1.048,0.739,0.363,0.622,0.585,���k��,2.2,��
2021/07/12,01:20,0.585,0.857,0.555,1.048,0.737,0.363,0.621,0.584,�k��,2.8,��
2021/07/12,01:30,0.584,0.856,0.557,1.048,0.736,0.362,0.620,0.583,���k��,3.9,��
2021/07/12,01:40,0.584,0.856,0.557,1.047,0.737,0.362,0.621,0.583,�k��,3.5,��
2021/07/12,01:50,0.585,0.860,0.557,1.048,0.738,0.363,0.621,0.584,���k��,2.5,��
2021/07/12,02:00,0.586,0.858,0.557,1.049,0.738,0.362,0.620,0.583,��,2.0,��
2021/07/12,02:10,0.583,0.857,0.555,1.049,0.738,0.363,0.620,0.583,��,2.0,��
2021/07/12,02:20,0.586,0.860,0.557,1.049,0.740,0.362,0.621,0.583,���쐼,1.1,��
2021/07/12,02:30,0.586,0.856,0.557,1.047,0.738,0.363,0.621,0.583,�쐼,1.2,��
2021/07/12,02:40,0.586,0.860,0.557,1.047,0.739,0.361,0.619,0.582,��쐼,1.1,��
2021/07/12,02:50,0.586,0.859,0.556,1.050,0.737,0.362,0.622,0.584,���쐼,1.1,��
2021/07/12,03:00,0.585,0.858,0.556,1.048,0.739,0.362,0.621,0.582,��,1.1,��
2021/07/12,03:10,0.585,0.857,0.556,1.047,0.738,0.362,0.621,0.584,��,1.4,��
2021/07/12,03:20,0.587,0.858,0.557,1.048,0.739,0.363,0.622,0.584,��,0.9,��
2021/07/12,03:30,0.588,0.857,0.557,1.049,0.738,0.363,0.621,0.583,���k��,0.6,��
2021/07/12,03:40,0.586,0.857,0.557,1.049,0.739,0.363,0.620,0.583,��,1.2,��
2021/07/12,03:50,0.586,0.858,0.556,1.048,0.737,0.362,0.622,0.584,���쐼,1.4,��
2021/07/12,04:00,0.586,0.857,0.557,1.048,0.740,0.363,0.623,0.584,�쐼,1.5,��
2021/07/12,04:10,0.585,0.856,0.557,1.047,0.737,0.364,0.622,0.582,��쐼,1.9,��
2021/07/12,04:20,0.585,0.856,0.559,1.049,0.739,0.361,0.622,0.584,��,2.0,��
2021/07/12,04:30,0.585,0.858,0.557,1.049,0.739,0.363,0.621,0.583,��쓌,0.8,��
2021/07/12,04:40,0.585,0.857,0.558,1.048,0.740,0.364,0.621,0.584,-,CALM,��
2021/07/12,04:50,0.587,0.858,0.558,1.049,0.738,0.363,0.621,0.582,���쐼,0.6,��
2021/07/12,05:00,0.586,0.858,0.558,1.049,0.739,0.362,0.621,0.584,-,CALM,��
2021/07/12,05:10,0.585,0.859,0.557,1.048,0.739,0.363,0.623,0.583,�k��,0.9,��
2021/07/12,05:20,0.586,0.860,0.557,1.050,0.739,0.363,0.620,0.584,���k��,1.1,��
2021/07/12,05:30,0.586,0.860,0.558,1.050,0.739,0.362,0.621,0.583,�쐼,1.7,��
2021/07/12,05:40,0.586,0.858,0.558,1.051,0.739,0.362,0.621,0.585,��쐼,2.3,��
2021/07/12,05:50,0.586,0.860,0.556,1.049,0.741,0.362,0.621,0.585,��쐼,4.9,��
2021/07/12,06:00,0.585,0.860,0.556,1.049,0.736,0.364,0.621,0.584,�쐼,4.3,��
2021/07/12,06:10,0.585,0.859,0.557,1.047,0.742,0.363,0.622,0.583,��쐼,3.6,��
2021/07/12,06:20,0.586,0.859,0.557,1.049,0.740,0.364,0.622,0.584,�쐼,2.0,��
2021/07/12,06:30,0.587,0.859,0.556,1.050,0.739,0.364,0.622,0.584,�쐼,1.4,��
2021/07/12,06:40,0.587,0.860,0.557,1.051,0.738,0.362,0.622,0.584,-,CALM,��
2021/07/12,06:50,0.585,0.859,0.556,1.050,0.739,0.362,0.622,0.583,���k��,0.8,��
2021/07/12,07:00,0.585,0.858,0.559,1.048,0.739,0.361,0.620,0.585,�k��,0.6,��
2021/07/12,07:10,0.587,0.858,0.557,1.049,0.740,0.361,0.620,0.584,�k,0.9,��
2021/07/12,07:20,0.585,0.858,0.558,1.048,0.738,0.361,0.620,0.583,�k,1.5,��
2021/07/12,07:30,0.586,0.860,0.557,1.048,0.740,0.362,0.619,0.584,�k,1.4,��
2021/07/12,07:40,0.587,0.859,0.558,1.048,0.738,0.361,0.620,0.583,�k��,0.9,��
2021/07/12,07:50,0.589,0.859,0.556,1.049,0.741,0.363,0.621,0.584,���쓌,1.5,��
2021/07/12,08:00,0.587,0.860,0.558,1.051,0.739,0.362,0.622,0.584,��쓌,1.5,��
2021/07/12,08:10,0.587,0.856,0.558,1.050,0.740,0.361,0.622,0.583,��,1.1,��
2021/07/12,08:20,0.587,0.863,0.559,1.050,0.740,0.363,0.622,0.582,�쓌,2.2,��
2021/07/12,08:30,0.588,0.860,0.560,1.052,0.741,0.361,0.622,0.582,�쓌,0.8,��
2021/07/12,08:40,0.586,0.858,0.560,1.052,0.740,0.362,0.623,0.583,���쓌,1.2,��
2021/07/12,08:50,0.587,0.862,0.559,1.049,0.741,0.362,0.623,0.584,��,2.2,��
2021/07/12,09:00,0.592,0.859,0.560,1.049,0.741,0.361,0.623,0.584,���k��,1.2,��
2021/07/12,09:10,0.588,0.860,0.559,1.053,0.742,0.363,0.623,0.584,��,1.1,��
2021/07/12,09:20,0.590,0.862,0.559,1.051,0.743,0.363,0.623,0.584,�쓌,1.9,��
2021/07/12,09:30,0.589,0.860,0.559,1.052,0.742,0.363,0.624,0.585,�쓌,2.0,��
2021/07/12,09:40,0.590,0.863,0.560,1.050,0.744,0.364,0.624,0.584,�쓌,3.3,��
2021/07/12,09:50,0.590,0.863,0.561,1.053,0.744,0.363,0.624,0.585,�쓌,3.2,��
2021/07/12,10:00,0.589,0.866,0.563,1.052,0.742,0.363,0.624,0.585,�쓌,4.1,��
2021/07/12,10:10,0.593,0.865,0.561,1.053,0.746,0.363,0.626,0.585,�쓌,3.6,��
2021/07/12,10:20,0.592,0.864,0.560,1.055,0.748,0.364,0.625,0.584,�쓌,3.2,��
2021/07/12,10:30,0.591,0.867,0.561,1.053,0.745,0.364,0.625,0.585,��쓌,2.3,��
2021/07/12,10:40,0.592,0.865,0.562,1.054,0.746,0.364,0.625,0.584,�쓌,3.3,��
2021/07/12,10:50,0.593,0.868,0.563,1.057,0.747,0.363,0.626,0.586,��쓌,3.6,��
2021/07/12,11:00,0.592,0.866,0.563,1.057,0.748,0.364,0.625,0.586,��쓌,3.8,��
2021/07/12,11:10,0.588,0.867,0.563,1.051,0.747,0.363,0.624,0.587,��쓌,3.7,��
2021/07/12,11:20,0.590,0.868,0.562,1.054,0.745,0.365,0.626,0.587,��쓌,4.2,��
2021/07/12,11:30,0.591,0.867,0.562,1.055,0.747,0.364,0.625,0.586,�쓌,3.2,��
2021/07/12,11:40,0.592,0.860,0.561,1.052,0.748,0.363,0.626,0.585,��쓌,2.8,��
2021/07/12,11:50,0.593,0.864,0.563,1.053,0.747,0.362,0.624,0.585,��쓌,3.7,��
2021/07/12,12:00,0.592,0.868,0.563,1.052,0.748,0.363,0.625,0.584,��쓌,3.4,��
2021/07/12,12:10,0.593,0.869,0.562,1.054,0.749,0.364,0.626,0.585,�쓌,2.0,��
2021/07/12,12:20,0.591,0.870,0.562,1.056,0.748,0.364,0.626,0.585,�쓌,2.5,��
2021/07/12,12:30,0.594,0.869,0.563,1.053,0.750,0.365,0.627,0.586,��,2.5,��
2021/07/12,12:40,0.591,0.872,0.562,1.056,0.750,0.363,0.625,0.585,��쓌,5.2,��
2021/07/12,12:50,0.592,0.871,0.565,1.055,0.749,0.364,0.626,0.585,��쓌,4.0,��
2021/07/12,13:00,0.594,0.869,0.563,1.055,0.751,0.364,0.627,0.585,��쓌,5.6,��
2021/07/12,13:10,0.594,0.869,0.564,1.054,0.750,0.364,0.627,0.585,��,5.6,��
2021/07/12,13:20,0.592,0.869,0.563,1.058,0.750,0.365,0.626,0.586,��쓌,5.3,��
2021/07/12,13:30,0.592,0.870,0.565,1.056,0.749,0.363,0.626,0.585,��,4.6,��
2021/07/12,13:40,0.593,0.871,0.564,1.055,0.750,0.364,0.625,0.586,��쐼,6.1,��
2021/07/12,13:50,0.592,0.869,0.563,1.057,0.750,0.364,0.627,0.585,��쐼,5.2,��
2021/07/12,14:00,0.591,0.870,0.564,1.055,0.750,0.364,0.625,0.587,�쐼,4.1,��
2021/07/12,14:10,0.591,0.870,0.562,1.055,0.750,0.364,0.628,0.585,��,5.9,��
2021/07/12,14:20,0.594,0.869,0.564,1.057,0.750,0.364,0.627,0.587,��,6.5,��
2021/07/12,14:30,0.595,0.873,0.566,1.057,0.751,0.364,0.628,0.585,��쐼,5.6,��
2021/07/12,14:40,0.594,0.870,0.565,1.056,0.751,0.363,0.627,0.586,��쐼,7.3,��
2021/07/12,14:50,0.594,0.871,0.565,1.056,0.752,0.364,0.627,0.587,��,6.3,��
2021/07/12,15:00,0.593,0.869,0.564,1.060,0.751,0.363,0.627,0.586,��,5.9,��
2021/07/12,15:10,0.595,0.873,0.564,1.058,0.751,0.364,0.627,0.586,��쐼,5.9,��
2021/07/12,15:20,0.597,0.872,0.565,1.060,0.754,0.366,0.628,0.586,��,4.9,��
2021/07/12,15:30,0.596,0.875,0.568,1.060,0.754,0.364,0.628,0.586,��쐼,4.7,��
2021/07/12,15:40,0.596,0.874,0.568,1.061,0.754,0.364,0.628,0.585,��쐼,5.2,��
2021/07/12,15:50,0.597,0.877,0.567,1.059,0.754,0.365,0.627,0.586,��쐼,4.6,��
2021/07/12,16:00,0.597,0.877,0.567,1.061,0.752,0.367,0.628,0.586,��,5.0,��
2021/07/12,16:10,0.596,0.876,0.567,1.062,0.753,0.366,0.626,0.587,��,4.9,��
2021/07/12,16:20,0.596,0.875,0.567,1.060,0.754,0.366,0.627,0.587,��,5.4,��
2021/07/12,16:30,0.598,0.876,0.569,1.062,0.753,0.367,0.628,0.587,��,5.3,��
2021/07/12,16:40,0.598,0.875,0.568,1.061,0.754,0.365,0.628,0.588,��,4.8,��
2021/07/12,16:50,0.597,0.875,0.566,1.061,0.754,0.366,0.628,0.589,��,5.9,��
2021/07/12,17:00,0.598,0.876,0.568,1.062,0.753,0.365,0.628,0.588,��,3.9,��
2021/07/12,17:10,0.598,0.877,0.568,1.060,0.755,0.364,0.627,0.588,��,3.7,��
2021/07/12,17:20,0.597,0.876,0.565,1.061,0.756,0.365,0.626,0.587,��,5.7,��
2021/07/12,17:30,0.598,0.877,0.568,1.061,0.753,0.367,0.629,0.587,��,3.7,��
2021/07/12,17:40,0.596,0.876,0.567,1.059,0.756,0.367,0.628,0.587,��,3.2,��
2021/07/12,17:50,0.597,0.877,0.569,1.062,0.754,0.366,0.630,0.586,��쓌,2.3,��
2021/07/12,18:00,0.597,0.878,0.568,1.061,0.754,0.366,0.628,0.588,��,3.8,��
2021/07/12,18:10,0.596,0.878,0.569,1.061,0.755,0.367,0.628,0.586,��,3.9,��
2021/07/12,18:20,0.596,0.876,0.567,1.062,0.756,0.366,0.628,0.588,��쐼,3.5,��
2021/07/12,18:30,0.597,0.880,0.568,1.062,0.755,0.368,0.631,0.587,��쐼,3.2,��
2021/07/12,18:40,0.597,0.877,0.566,1.062,0.755,0.366,0.629,0.588,�쐼,3.0,��
2021/07/12,18:50,0.595,0.878,0.567,1.064,0.755,0.366,0.627,0.589,�쐼,2.9,��
2021/07/12,19:00,0.596,0.879,0.568,1.063,0.756,0.367,0.629,0.588,�쐼,2.8,��
2021/07/12,19:10,0.598,0.878,0.568,1.063,0.755,0.367,0.630,0.588,�쐼,1.7,��
2021/07/12,19:20,0.596,0.876,0.568,1.062,0.756,0.366,0.628,0.588,��쐼,2.2,��
2021/07/12,19:30,0.596,0.879,0.569,1.066,0.754,0.367,0.631,0.589,���쐼,1.4,��
2021/07/12,19:40,0.596,0.876,0.570,1.064,0.755,0.367,0.630,0.588,�k��,0.9,��
2021/07/12,19:50,0.597,0.877,0.567,1.064,0.754,0.366,0.628,0.589,�k��,1.2,��
2021/07/12,20:00,0.596,0.878,0.569,1.064,0.756,0.368,0.628,0.588,���k��,2.0,��
2021/07/12,20:10,0.599,0.876,0.568,1.063,0.756,0.367,0.628,0.587,���k��,2.5,��
2021/07/12,20:20,0.598,0.877,0.568,1.064,0.753,0.366,0.630,0.589,��,2.0,��
2021/07/12,20:30,0.596,0.879,0.567,1.062,0.756,0.365,0.629,0.588,���k��,3.0,��
2021/07/12,20:40,0.597,0.879,0.568,1.064,0.756,0.366,0.630,0.590,�k��,3.2,��
2021/07/12,20:50,0.598,0.880,0.568,1.064,0.756,0.368,0.629,0.588,���k��,3.4,��
2021/07/12,21:00,0.597,0.878,0.569,1.065,0.757,0.368,0.628,0.589,���k��,1.7,��
2021/07/12,21:10,0.598,0.879,0.568,1.064,0.756,0.365,0.629,0.590,�k�k��,1.5,��
2021/07/12,21:20,0.597,0.878,0.569,1.064,0.756,0.366,0.629,0.588,�k�k��,2.8,��
2021/07/12,21:30,0.597,0.880,0.569,1.066,0.757,0.368,0.628,0.589,�k,2.5,��
2021/07/12,21:40,0.595,0.879,0.568,1.064,0.756,0.366,0.630,0.588,�k�k��,1.5,��
2021/07/12,21:50,0.596,0.879,0.569,1.066,0.756,0.366,0.628,0.590,�k�k��,1.2,��
2021/07/12,22:00,0.597,0.878,0.570,1.065,0.757,0.367,0.629,0.589,�k�k��,1.1,��
2021/07/12,22:10,0.596,0.878,0.568,1.063,0.756,0.366,0.630,0.589,�k�k��,1.7,��
2021/07/12,22:20,0.597,0.880,0.567,1.064,0.757,0.366,0.629,0.590,�k,2.0,��
2021/07/12,22:30,0.597,0.878,0.571,1.065,0.757,0.367,0.628,0.590,�k,2.2,��
2021/07/12,22:40,0.596,0.879,0.570,1.067,0.756,0.366,0.628,0.589,�k�k��,2.2,��
2021/07/12,22:50,0.598,0.880,0.568,1.067,0.756,0.366,0.629,0.589,�k�k��,2.5,��
2021/07/12,23:00,0.597,0.879,0.569,1.066,0.755,0.367,0.628,0.590,�k�k��,2.3,��
2021/07/12,23:10,0.596,0.879,0.568,1.063,0.756,0.367,0.629,0.589,�k�k��,2.5,��
2021/07/12,23:20,0.597,0.879,0.569,1.065,0.756,0.366,0.630,0.588,�k�k��,2.9,��
2021/07/12,23:30,0.599,0.878,0.568,1.066,0.759,0.366,0.630,0.587,�k�k��,3.3,��
2021/07/12,23:40,0.596,0.880,0.571,1.065,0.759,0.366,0.628,0.589,�k�k��,3.4,��
2021/07/12,23:50,0.598,0.879,0.571,1.067,0.758,0.367,0.630,0.591,�k�k��,2.6,��
